Weather Roundup
Issued by NWS

Home | Current Version | Previous Version | Text Only | Print | Product List | Glossary On
Versions: 1 2 3 4 5 6 7 8 9 10 11 12 13 14 15 16 17 18 19 20 21 22 23 24 25 26 27 28 29 30 31 32 33 34 35 36 37 38 39 40 41 42 43 44 45 46 47 48 49 50
000
NZUS93 KARX 280010
HRRWXR

CURRENT HOURLY OBSERVATIONS ACROSS
MUCH OF THE UPPER MISSISSIPPI VALLEY
NATIONAL WEATHER SERVICE LA CROSSE WI
700 PM CDT THU AUG 27 2015


...SOUTHEAST MINNESOTA...


CITY           SKY/WX    TMP DP  RH WIND       PRES   REMARKS
ROCHESTER      CLOUDY    67  60  78 S9        30.07R
ROCHESTER/MAYO FAIR      70  59  68 SE3       30.07R
WINONA         CLOUDY    73  61  64 SE7       30.04F
AUSTIN         CLOUDY    68  61  77 S6        30.04F
ALBERT LEA     CLOUDY    68  57  68 S8        30.03F
DODGE CENTER   CLOUDY    66  59  77 CALM      30.06R
PRESTON        CLOUDY    67  59  73 S6        30.07F
OWATONNA       CLOUDY    66  59  77 SE5       30.04F
FARIBAULT      CLOUDY    66  61  82 SE6       30.04F
$$

...ELSEWHERE IN MINNESOTA...


CITY           SKY/WX    TMP DP  RH WIND       PRES   REMARKS
MINNEAPOLIS    MOCLDY    73  58  59 S13       30.01S
INTNL FALLS    PTCLDY    72  59  63 S3        29.95S
DULUTH         MOCLDY    63  53  70 SE8       30.01F
RED WING       MOCLDY    73  59  60 SE7       30.01F
REDWOOD FALLS  LGT RAIN  67  65  93 SE12      29.97F
MANKATO        CLOUDY    66  61  82 SE6       30.01F
WORTHINGTON    CLOUDY    64  61  88 SE6       30.03S
FAIRMONT       PTSUNNY   68  57  68 S7        30.02S
$$

...SOUTHWEST WISCONSIN...


CITY           SKY/WX    TMP DP  RH WIND       PRES   REMARKS
LA CROSSE      MOCLDY    74  59  59 S8        30.06F
PRAIRIE DU CHI CLOUDY    71  56  59 S3        30.09F
BOSCOBEL       MOCLDY    73  59  61 S5        30.10R
LONE ROCK      PTCLDY    71  59  65 S6        30.10S
PLATTEVILLE    PTCLDY    67  62  82 SW5       30.12R
FORT MC COY    CLOUDY    71  57  62 S3        30.10S
CAMP DOUGLAS   MOCLDY    72  63  73 S6        30.09R
VIROQUA        FAIR      69  60  73 S6        30.11S
WIS DELLS      PTCLDY    70  55  59 SW5       30.10S
$$

...ELSEWHERE IN WISCONSIN...


CITY           SKY/WX    TMP DP  RH WIND       PRES   REMARKS
MILWAUKEE      MOCLDY    66  53  63 S8        30.12F
MADISON        MOCLDY    71  56  58 SW7       30.10S
GREEN BAY      CLEAR     68  59  73 SW5       30.09S
EAU CLAIRE     CLOUDY    71  57  61 S8        30.04F
BLACK RVR FLS  MOCLDY    71  58  64 CALM      30.07F
MEDFORD        CLOUDY    67  59  76 S5        30.08F
WAUSAU         MOCLDY    70  57  63 SW3       30.07F
WIS RAPIDS     MOCLDY    70  56  61 S5        30.09F
MARSHFIELD     MOCLDY    69  57  65 SW5       30.08F
RICE LAKE      CLOUDY    68  58  70 S5        30.06F
$$

...NORTHEAST IOWA...


CITY           SKY/WX    TMP DP  RH WIND       PRES   REMARKS
DECORAH        CLOUDY    68  59  73 SE6       30.05F
MASON CITY     CLOUDY    67  60  78 S10       30.04F
CHARLES CITY   CLOUDY    68  63  83 S5G13     30.06F
OELWEIN          N/A     68  61  77 CALM      30.10F
$$

...ELSEWHERE IN IOWA...


CITY           SKY/WX    TMP DP  RH WIND       PRES   REMARKS
DES MOINES     MOCLDY    73  61  65 SE12      30.00F
IOWA CITY      CLOUDY    71  60  68 E5        30.09R
FORT DODGE     PTSUNNY   70  61  73 SE10      30.02S
$$

...NORTHERN ILLINOIS...


CITY           SKY/WX    TMP DP  RH WIND       PRES   REMARKS
CHICAGO-OHARE  MOCLDY    69  52  54 E13       30.12F
CHICAGO-MIDWAY MOCLDY    70  55  59 E10       30.12F
MOLINE         PTCLDY    70  60  70 SE7       30.06F
ROCKFORD       CLOUDY    69  57  65 SE6       30.13F
PEORIA         CLEAR     74  57  55 E5        30.09F
$$

NOTE: "FAIR" INDICATES FEW OR NO CLOUDS BELOW 12,000 FEET WITH NO
SIGNIFICANT WEATHER AND/OR OBSTRUCTIONS TO VISIBILITY. WIND
SPEEDS ARE IN MILES-PER-HOUR.



USA.gov is the U.S. government's official web portal to all federal, state and local government web resources and services.